Temp_Advection
nan nan nan nan nan nan nan nan nan nan nan nan nan nan nan nan nan nan nan nan nan nan nan nan nan nan nan nan nan nan nan nan nan nan nan nan nan nan nan nan nan nan nan nan
nan -1 -0 -0 0 0 -0 -0 -1 -0 0 0 -1 -1 0 -1 0 0 0 0 0 -0 -0 0 0 -0 -0 -0 -0 -1 -1 -1 -2 -1 -1 -0 -1 -1 -1 -1 -0 -0 -0 nan
nan 0 -0 0 0 -0 -0 -0 -0 -0 -0 0 0 -0 -1 0 0 0 0 0 0 0 0 0 0 -0 -0 -0 -0 -0 -1 -1 -1 -1 -1 -1 -1 -1 -1 -0 -1 -1 -0 nan
nan 0 1 0 -0 -0 -0 0 1 0 -0 -0 -0 -0 -0 0 -0 -0 0 0 0 0 0 0 0 0 -0 -0 -0 -0 -0 -0 -0 -1 -1 -1 -1 -1 -1 -1 -1 -1 -1 nan
nan 0 0 -1 -1 0 0 -0 0 -0 -0 -0 -0 -0 -0 -0 -0 -0 -0 -0 -0 0 0 0 0 0 0 0 -0 -0 -0 -0 -0 -0 -0 -1 -1 -1 -1 -1 -1 -1 -1 nan
nan 0 -0 -0 0 0 0 0 0 0 0 -0 -1 -0 -0 0 0 -0 -0 -0 0 0 0 0 0 0 -0 -0 -0 -0 -0 -0 -0 -0 -0 -0 -0 -1 -1 -1 -1 -1 -1 nan
nan 0 0 0 0 0 0 0 0 0 0 -1 0 0 -0 -0 -0 -0 0 0 0 0 0 0 0 0 0 -0 -0 -0 -0 -0 -0 -0 -0 -0 -0 -0 -0 -0 -0 -1 -1 nan
nan -0 -1 0 0 -0 0 0 0 -0 -1 -0 0 -0 -0 -0 -0 -0 0 0 0 0 0 0 0 0 0 -0 -0 -0 -0 -0 -0 -0 -0 -0 1 1 0 -0 -0 -0 -0 nan
nan 0 0 0 0 0 0 -0 0 0 0 -0 -1 -1 -0 -1 -0 -0 -0 0 0 0 0 0 0 0 -0 -0 -0 0 0 0 0 0 -0 -0 1 1 0 0 0 -0 -0 nan
nan 0 0 0 0 0 0 0 0 0 0 -1 -1 -0 -0 0 0 0 0 0 1 1 1 1 1 0 0 0 0 0 0 1 1 1 0 1 -0 0 0 0 0 0 -0 nan
nan 0 0 0 -0 0 -0 0 -0 -0 0 0 -0 -0 -0 -0 0 -0 0 0 1 1 1 1 0 -0 -0 -0 0 -0 -0 -0 0 0 1 0 -0 -0 0 0 1 0 0 nan
nan 0 0 -0 0 -0 0 0 0 0 -0 -0 0 -1 -0 0 0 -0 -0 0 1 1 1 1 0 -0 -0 -0 0 -0 -0 -0 -0 -0 0 -0 0 0 -0 0 0 -0 -0 nan
nan 0 -0 0 0 0 0 -0 -0 0 0 1 0 -1 0 0 -0 -0 0 1 1 1 1 0 0 0 0 0 0 -0 -0 -0 -0 -0 -0 -0 0 -0 -0 -1 -1 -1 -0 nan
nan -0 0 0 -0 -0 0 -0 0 1 0 -0 0 -0 -1 -1 -0 0 0 1 1 1 1 1 0 0 0 0 -0 -0 -0 -0 -0 -0 -0 -0 -0 -0 -0 -1 -1 -1 -0 nan
nan 1 0 -1 -0 0 -0 -0 0 0 0 1 -0 -1 -1 -0 -0 0 0 0 1 1 1 1 0 0 0 0 -0 0 -0 -0 -0 -0 -0 -0 -0 -0 -0 0 -0 0 1 nan
nan 1 -0 -1 -1 0 -0 -1 0 0 0 0 0 -2 -1 1 0 0 0 0 1 1 1 1 0 -0 -0 0 0 0 0 -0 -0 -0 -0 -0 -0 -0 -0 -0 -0 0 0 nan
nan 0 -0 -1 -1 1 0 -0 -1 -1 -0 0 -0 -1 -0 0 0 1 1 1 1 1 1 1 0 0 0 -0 0 0 0 0 -0 -0 -0 -0 -0 -0 -0 -0 -0 -0 -0 nan
nan -0 -1 -0 0 -0 -2 -0 0 0 -1 -0 -0 -0 0 0 -0 0 0 0 1 1 1 1 0 0 0 0 0 0 0 0 -0 -0 -0 -0 -0 -0 -0 -0 -1 -1 -1 nan
nan -0 0 0 -0 -1 -1 0 0 0 -1 -0 -0 -0 2 -1 -0 1 0 0 1 1 1 1 1 0 0 0 0 -0 -0 0 0 0 -0 0 -0 -0 -0 -1 -1 -1 -1 nan
nan 1 0 -0 0 -1 -1 -0 -0 0 -0 -0 0 -0 0 -0 0 -0 0 1 1 1 1 1 0 0 0 -0 -0 -0 -0 -0 -0 -0 -0 0 -0 0 -1 -1 -0 -1 -1 nan
nan 0 -0 -0 -1 -1 -0 -0 0 0 -0 0 0 0 0 0 -0 0 0 0 1 1 1 0 -0 -0 -0 -0 -0 -0 -0 -0 0 -0 -0 -0 -0 -0 -1 -1 -0 -0 0 nan
nan -0 -1 -0 -0 -2 -0 -1 -0 -0 -0 0 0 0 1 1 1 0 1 1 1 0 1 0 -0 -0 0 0 0 0 0 0 0 0 0 0 -0 -0 -1 -1 -0 0 0 nan
nan -1 -0 -0 -1 -0 0 0 0 -0 0 0 0 1 1 1 1 1 1 1 0 1 1 0 0 0 0 0 0 0 0 0 0 0 0 0 -0 -1 -1 -0 0 -0 -0 nan
nan 0 0 -0 -0 0 0 0 0 0 1 0 0 1 1 1 1 1 0 -0 -0 0 1 1 1 1 0 0 0 0 0 0 0 0 0 -0 -0 -0 -0 0 -0 0 0 nan
nan 0 1 0 -0 -1 0 1 0 0 1 1 1 1 1 1 1 1 0 -0 -0 -0 0 1 1 1 1 0 0 0 0 0 0 0 0 0 -0 0 0 -0 -1 0 0 nan
nan nan nan nan nan nan nan nan nan nan nan nan nan nan nan nan nan nan nan nan nan nan nan nan nan nan nan nan nan nan nan nan nan nan nan nan nan nan nan nan nan nan nan nan
Wind_Speed
13 10 13 14 3 9 10 11 13 12 4 4 13 14 12 18 13 13 12 10 8 5 3 1 4 6 7 8 10 13 16 18 20 19 21 22 22 23 22 21 23 23 24 25
8 15 11 3 5 10 11 13 14 12 7 6 15 15 12 16 13 12 12 11 8 6 4 0 2 4 6 8 10 13 15 18 19 19 22 20 22 23 23 22 20 22 22 22
16 3 8 4 8 10 13 13 12 11 8 12 20 17 20 14 13 11 12 8 7 6 4 2 1 3 5 7 10 13 15 17 17 21 18 20 22 20 20 20 23 21 23 25
16 20 11 12 15 12 14 12 9 11 11 10 4 11 12 13 11 12 13 11 11 8 4 2 2 3 5 7 9 11 13 14 15 18 19 21 21 23 22 23 23 24 23 24
14 11 11 15 15 10 9 2 7 10 12 14 16 10 6 9 11 15 13 13 11 8 5 4 2 2 4 7 9 11 13 14 16 18 20 21 20 20 22 21 23 24 21 22
20 7 8 13 5 10 4 8 8 9 10 12 17 16 12 6 5 8 7 11 10 8 6 4 2 2 4 7 9 11 12 13 15 19 19 21 21 22 22 22 23 22 22 21
22 20 14 12 11 10 12 9 7 10 8 11 3 5 8 1 7 3 3 7 9 8 7 5 3 2 4 6 9 10 12 13 16 18 18 19 21 21 21 21 21 23 22 22
19 18 24 18 20 12 15 13 8 10 10 10 9 6 3 7 9 11 7 6 11 10 8 7 5 2 2 5 7 9 11 12 15 16 16 18 20 20 19 19 20 20 21 22
10 16 12 4 16 16 9 11 14 15 15 12 12 17 5 9 8 9 7 8 11 12 10 8 6 2 1 4 6 8 10 12 13 14 15 16 22 22 21 20 19 20 20 21
5 4 6 5 5 13 10 6 6 7 5 11 11 14 5 7 4 6 9 10 11 11 11 9 6 3 0 2 4 7 9 12 12 13 13 15 18 19 20 21 20 19 18 20
6 8 9 8 12 14 8 10 7 5 10 11 13 9 2 2 1 7 7 9 10 12 12 10 8 3 5 3 3 6 8 11 12 12 13 14 15 15 16 20 22 20 19 21
10 6 8 17 2 6 14 16 15 7 9 11 12 12 2 5 5 7 11 15 10 10 12 10 11 9 6 4 3 4 7 8 10 11 12 14 16 16 15 17 19 21 23 23
9 7 9 8 5 7 11 13 12 10 7 14 11 12 5 3 8 16 21 10 7 11 11 9 9 9 7 5 3 4 4 7 9 10 12 14 16 17 17 18 18 18 21 26
4 7 8 12 3 6 15 15 14 12 10 13 16 16 19 17 19 22 21 17 7 14 13 11 9 8 7 6 3 2 4 5 7 9 11 13 15 16 17 17 17 19 20 22
2 8 3 7 9 10 12 11 13 13 17 16 17 20 22 21 19 21 15 10 9 15 15 14 13 10 7 4 3 1 2 4 6 8 9 11 13 14 15 17 18 17 22 23
5 6 4 4 10 13 14 16 15 15 20 18 20 26 21 26 8 8 10 10 11 16 17 16 14 11 8 6 4 2 1 3 4 6 9 10 12 13 14 15 16 19 20 23
7 5 2 8 14 10 12 13 18 20 21 18 19 21 17 13 14 12 10 8 11 16 17 17 15 12 10 8 6 4 2 1 3 6 8 8 9 12 14 14 15 17 20 22
5 6 9 5 5 11 13 4 9 15 17 15 16 17 17 10 4 2 6 10 12 16 17 17 15 13 11 9 8 6 4 2 3 4 6 8 9 10 13 13 15 17 19 22
13 10 9 7 11 13 17 13 10 9 13 11 15 16 14 3 3 10 6 7 11 15 17 19 16 14 12 10 9 7 6 5 4 4 5 6 7 9 11 13 14 16 18 20
14 12 11 9 11 14 15 5 6 3 11 8 3 6 4 3 6 2 8 10 14 20 22 23 19 14 17 14 12 13 9 8 6 6 5 5 6 7 9 12 13 14 15 16
9 10 16 13 13 14 13 13 9 6 3 5 2 2 5 6 2 6 10 13 15 20 22 20 22 21 18 16 13 12 10 9 8 7 6 5 6 8 8 9 10 12 13 14
12 8 10 13 16 19 10 14 8 4 3 5 6 7 11 10 7 9 14 18 15 21 22 22 23 19 18 17 15 13 12 10 9 7 6 6 6 7 9 10 11 11 11 14
12 12 9 10 10 6 7 11 12 4 8 7 8 7 11 14 13 12 14 15 17 20 22 23 22 21 19 18 16 15 13 11 10 8 7 6 6 7 9 9 11 10 12 11
15 19 11 13 12 10 11 13 14 12 12 11 10 10 12 12 15 15 15 17 19 20 22 24 24 23 21 19 18 16 14 13 11 9 7 6 6 7 9 9 9 9 9 10
11 13 16 15 13 16 17 15 15 16 14 12 11 11 13 12 14 16 17 20 20 21 21 22 22 22 22 20 19 17 15 14 12 10 8 6 6 6 7 8 9 8 11 10
17 11 10 9 10 13 14 6 5 8 12 14 14 13 13 14 14 16 17 20 21 23 22 22 21 20 20 20 19 18 17 15 12 9 7 5 4 5 4 4 5 9 10 11
Wind_Direction
199 236 224 234 6 329 301 288 278 282 98 276 255 255 255 179 198 196 202 198 193 188 177 65 21 9 14 358 356 348 344 341 339 334 329 323 317 311 308 303 300 302 298 299
198 235 246 62 252 247 251 260 258 264 266 280 265 262 256 170 198 207 209 205 200 188 181 293 3 6 3 358 352 347 347 343 341 334 332 323 317 312 306 306 302 301 304 300
236 339 112 191 210 235 235 254 264 271 288 255 259 260 253 197 189 193 211 214 191 201 202 233 330 351 358 350 350 349 348 347 343 339 336 329 322 315 310 302 304 302 302 299
237 251 225 230 252 245 255 250 241 265 265 271 83 291 303 175 182 197 197 195 191 188 199 219 301 331 347 346 348 352 349 349 345 345 341 334 329 319 312 311 307 304 304 304
226 204 224 234 239 232 259 12 253 258 263 276 268 263 252 167 197 185 196 192 186 182 195 222 258 316 343 351 350 353 354 351 349 348 346 342 332 324 318 315 311 315 313 308
253 205 223 244 205 221 138 197 218 240 253 259 256 246 266 166 192 94 136 180 174 184 195 215 246 334 339 348 349 350 350 352 351 350 351 347 341 332 329 326 325 321 319 316
230 231 207 240 209 201 198 206 238 219 213 249 144 258 279 33 128 82 139 174 185 192 206 221 239 283 322 345 349 352 350 351 348 351 352 351 348 344 337 333 329 328 326 326
217 230 217 203 225 201 212 228 237 247 250 275 137 252 228 104 116 129 148 190 185 196 206 216 227 253 325 349 347 352 349 349 347 351 351 352 355 351 346 339 335 335 332 327
218 220 178 192 210 241 203 224 251 270 271 266 264 270 143 113 131 157 175 190 200 207 210 211 216 220 338 353 345 347 349 348 351 353 352 353 355 357 358 354 349 346 344 338
236 156 211 154 212 228 229 193 195 223 248 251 260 270 322 160 205 169 221 227 242 222 208 206 209 208 299 342 352 337 346 352 1 356 354 353 355 358 9 7 2 357 1 0
244 247 178 170 213 187 188 213 233 274 252 272 278 275 107 192 190 298 292 290 242 222 217 207 195 215 243 256 303 335 345 354 3 354 355 354 356 9 14 17 17 18 24 16
204 224 177 210 170 282 216 216 215 225 250 246 264 271 265 267 213 259 284 300 291 207 208 214 220 231 239 242 287 338 349 357 3 358 2 5 9 12 18 21 22 26 34 33
169 217 195 185 205 215 233 227 247 249 267 263 276 273 192 197 240 266 272 260 247 196 203 210 218 223 225 233 271 339 358 357 360 360 9 14 13 15 23 26 25 22 32 33
176 249 234 243 335 326 215 232 235 234 241 257 255 272 271 276 286 299 303 307 228 197 206 212 216 211 219 225 259 313 345 2 2 5 15 19 21 20 27 28 31 27 31 35
203 252 196 273 293 236 242 241 234 233 251 256 272 272 276 288 294 303 311 286 237 198 201 208 210 203 199 208 232 276 330 6 13 15 23 30 33 33 34 38 36 39 39 45
149 220 43 323 282 279 272 266 268 249 244 254 265 273 282 277 308 292 284 278 242 204 205 204 202 194 184 183 192 221 285 16 29 30 37 38 42 43 42 45 43 46 48 52
186 153 171 250 263 245 262 251 243 250 254 255 262 270 289 298 296 277 268 257 236 215 204 199 195 184 182 176 176 182 202 120 60 51 47 43 45 50 47 47 50 50 52 53
185 165 203 243 211 235 250 245 252 238 254 251 261 275 289 305 334 317 259 254 223 207 195 189 185 180 175 164 161 162 150 127 96 68 57 50 43 52 53 52 52 51 51 51
219 208 233 230 222 256 267 230 208 221 252 247 266 281 281 68 315 249 206 210 202 192 184 180 178 174 167 168 165 161 150 137 132 96 74 54 47 46 54 55 53 54 52 51
225 232 234 233 240 259 267 84 110 180 272 225 275 287 260 184 266 93 170 171 170 178 180 182 178 169 182 171 180 176 172 172 162 139 101 91 78 63 57 55 48 51 51 48
203 224 230 235 249 256 269 148 155 230 290 135 170 200 210 212 331 149 160 162 189 193 196 191 183 194 190 193 187 183 180 173 162 149 129 114 99 78 69 60 52 46 44 46
191 201 219 234 244 249 232 142 213 256 170 182 197 194 195 209 202 189 188 194 188 185 191 192 194 195 191 190 187 183 179 171 160 145 132 122 106 90 74 62 53 60 52 39
224 221 235 222 231 252 187 196 218 264 275 236 257 224 215 210 214 206 194 189 186 190 190 194 196 193 191 189 187 188 180 174 163 150 140 124 104 89 80 66 60 44 46 51
239 234 260 251 264 249 236 248 265 265 253 264 255 234 214 224 221 213 195 189 188 186 190 194 195 195 195 191 190 189 186 181 170 160 152 131 109 92 82 61 63 74 70 43
246 222 232 250 264 262 267 268 277 272 248 255 247 235 218 220 219 217 202 192 192 189 188 189 191 195 196 195 195 189 185 182 172 168 159 135 120 104 98 106 104 60 65 75
245 231 238 233 236 236 260 258 250 251 258 243 234 231 226 216 215 206 200 196 193 191 189 188 187 187 190 191 193 190 186 182 172 168 154 154 139 129 122 88 70 58 48 40
Height
1502 1501 1494 1482 1487 1493 1494 1492 1488 1481 1485 1501 1496 1491 1487 1497 1503 1506 1512 1516 1519 1522 1524 1524 1524 1524 1523 1521 1518 1516 1514 1511 1508 1506 1503 1500 1497 1493 1490 1487 1483 1480 1476 1472
1498 1496 1484 1490 1495 1498 1496 1494 1490 1484 1486 1497 1491 1486 1481 1487 1496 1501 1507 1512 1516 1520 1523 1524 1524 1523 1522 1521 1518 1515 1513 1510 1507 1504 1500 1498 1494 1490 1485 1483 1480 1475 1473 1468
1492 1482 1491 1495 1494 1496 1492 1492 1487 1487 1485 1488 1485 1483 1473 1475 1492 1499 1504 1508 1513 1517 1520 1522 1523 1523 1522 1520 1517 1514 1511 1509 1506 1501 1499 1495 1492 1487 1483 1478 1473 1471 1466 1461
1485 1484 1485 1491 1492 1487 1489 1480 1489 1491 1492 1488 1481 1487 1471 1474 1491 1499 1503 1507 1509 1515 1519 1521 1522 1521 1520 1517 1515 1512 1509 1507 1504 1499 1496 1491 1488 1483 1478 1473 1468 1463 1458 1454
1479 1486 1490 1487 1482 1484 1487 1489 1491 1490 1489 1486 1479 1481 1463 1471 1480 1488 1497 1504 1508 1512 1516 1519 1519 1518 1518 1516 1514 1511 1509 1507 1502 1498 1493 1488 1484 1480 1474 1468 1462 1457 1452 1449
1481 1482 1485 1483 1483 1486 1485 1490 1489 1488 1488 1491 1475 1473 1467 1463 1474 1481 1490 1500 1507 1512 1514 1516 1516 1516 1516 1514 1512 1509 1507 1505 1500 1496 1492 1486 1481 1476 1469 1464 1458 1454 1448 1445
1479 1479 1482 1485 1486 1487 1487 1485 1489 1488 1486 1484 1465 1475 1466 1466 1476 1485 1492 1499 1507 1510 1513 1514 1515 1515 1513 1512 1510 1507 1505 1503 1498 1494 1491 1485 1480 1473 1468 1463 1457 1451 1446 1441
1469 1479 1472 1477 1478 1480 1482 1479 1482 1484 1476 1465 1470 1472 1460 1472 1480 1488 1494 1498 1503 1508 1509 1511 1512 1512 1511 1509 1507 1505 1503 1500 1496 1493 1490 1484 1478 1473 1468 1462 1456 1450 1445 1439
1459 1464 1464 1473 1477 1475 1478 1484 1476 1482 1478 1482 1471 1462 1460 1478 1484 1489 1494 1498 1500 1503 1505 1508 1509 1508 1507 1507 1505 1502 1499 1497 1495 1491 1488 1483 1478 1472 1466 1461 1456 1450 1444 1438
1458 1472 1470 1478 1480 1478 1477 1473 1487 1485 1493 1488 1465 1461 1463 1480 1479 1485 1489 1493 1498 1501 1504 1505 1506 1505 1504 1503 1502 1499 1497 1495 1492 1490 1487 1483 1479 1473 1467 1462 1456 1450 1445 1439
1460 1463 1478 1481 1478 1473 1482 1479 1478 1474 1473 1480 1478 1471 1471 1482 1480 1484 1485 1487 1490 1496 1503 1503 1502 1502 1500 1499 1498 1496 1495 1494 1491 1489 1486 1482 1478 1474 1469 1463 1458 1451 1445 1439
1462 1464 1475 1474 1468 1470 1466 1470 1471 1483 1479 1471 1471 1470 1468 1472 1481 1484 1484 1484 1486 1492 1498 1499 1497 1498 1498 1497 1496 1494 1494 1493 1491 1489 1485 1481 1477 1473 1469 1464 1459 1454 1447 1442
1465 1465 1468 1471 1476 1472 1470 1466 1465 1465 1470 1475 1483 1471 1470 1473 1477 1477 1473 1476 1483 1491 1496 1497 1495 1495 1495 1495 1494 1493 1493 1492 1491 1488 1485 1481 1477 1473 1469 1465 1461 1456 1451 1446
1465 1462 1463 1465 1471 1466 1468 1464 1464 1469 1476 1472 1468 1472 1463 1464 1464 1464 1468 1472 1477 1485 1491 1495 1496 1495 1492 1492 1493 1493 1493 1491 1490 1488 1485 1481 1477 1474 1470 1466 1463 1459 1454 1449
1467 1466 1471 1468 1464 1469 1468 1463 1463 1469 1465 1471 1467 1465 1459 1460 1462 1462 1468 1472 1474 1480 1486 1491 1494 1494 1491 1491 1492 1492 1492 1491 1490 1488 1485 1482 1479 1476 1472 1468 1465 1462 1457 1452
1469 1473 1481 1481 1467 1465 1467 1463 1461 1463 1463 1467 1468 1461 1458 1457 1458 1464 1468 1471 1472 1477 1483 1487 1490 1490 1490 1491 1491 1491 1491 1490 1490 1488 1485 1483 1480 1477 1474 1471 1468 1464 1461 1457
1470 1472 1484 1481 1466 1464 1469 1464 1462 1459 1456 1457 1458 1450 1450 1453 1456 1458 1462 1468 1472 1476 1480 1483 1486 1488 1489 1490 1490 1491 1490 1490 1490 1488 1486 1484 1482 1478 1476 1473 1471 1468 1464 1461
1467 1471 1470 1466 1468 1472 1452 1452 1451 1453 1451 1449 1447 1446 1447 1450 1457 1461 1464 1466 1468 1473 1476 1480 1483 1486 1487 1489 1490 1490 1491 1490 1490 1489 1487 1486 1484 1481 1478 1476 1473 1471 1468 1464
1468 1463 1463 1466 1460 1452 1445 1444 1451 1454 1450 1446 1444 1443 1445 1454 1457 1457 1461 1464 1467 1470 1474 1477 1481 1484 1486 1488 1489 1490 1491 1491 1490 1489 1488 1486 1485 1483 1480 1478 1476 1474 1472 1469
1460 1463 1465 1456 1457 1453 1437 1442 1444 1450 1449 1439 1442 1443 1445 1454 1451 1454 1461 1464 1465 1466 1469 1473 1477 1482 1482 1485 1486 1487 1488 1489 1489 1488 1488 1487 1486 1484 1483 1481 1479 1477 1475 1473
1460 1462 1459 1454 1450 1439 1434 1440 1449 1454 1444 1441 1444 1446 1450 1453 1456 1458 1461 1463 1461 1464 1468 1472 1475 1477 1480 1482 1484 1485 1487 1488 1488 1488 1488 1487 1487 1485 1484 1483 1482 1481 1479 1477
1446 1452 1450 1447 1444 1440 1433 1441 1446 1439 1440 1442 1445 1447 1449 1451 1454 1455 1457 1458 1460 1462 1466 1470 1473 1476 1478 1481 1482 1484 1486 1487 1488 1488 1488 1488 1487 1486 1485 1484 1484 1482 1483 1482
1435 1435 1434 1435 1432 1430 1431 1434 1438 1439 1439 1442 1444 1446 1446 1448 1449 1451 1453 1457 1459 1461 1464 1468 1471 1473 1477 1479 1481 1483 1484 1486 1487 1488 1489 1488 1488 1487 1487 1487 1487 1487 1485 1485
1426 1430 1429 1433 1428 1428 1433 1433 1434 1435 1438 1441 1443 1444 1445 1444 1445 1447 1450 1455 1457 1459 1461 1465 1468 1471 1474 1477 1479 1481 1483 1485 1486 1487 1488 1488 1488 1489 1488 1488 1487 1486 1487 1487
1425 1428 1429 1426 1430 1428 1428 1430 1432 1433 1436 1439 1440 1441 1442 1441 1442 1444 1447 1451 1454 1457 1460 1463 1466 1468 1471 1474 1477 1480 1482 1484 1485 1487 1488 1489 1489 1489 1488 1487 1488 1487 1485 1484
1421 1422 1423 1424 1425 1427 1427 1428 1430 1432 1433 1434 1436 1437 1439 1439 1439 1441 1444 1448 1451 1455 1458 1461 1464 1467 1469 1471 1475 1478 1480 1482 1485 1487 1489 1490 1491 1492 1492 1490 1489 1488 1487 1485